Change the Weather History Date:

Sunday, October 2, 2011

  Actual Average Record
Temperature  
Mean Temperature 82 °F -  
Max Temperature 94 °F 83 °F 94 °F (2014)
Min Temperature 71 °F 69 °F 69 °F (2011)
Cooling Degree Days 18    
Growing Degree Days 32 (Base 50)    
Moisture  
Dew Point 61 °F    
Average Humidity 50    
Maximum Humidity 88    
Minimum Humidity 29    
Precipitation  
Precipitation 0.00 in 0.12 in - ()
Sea Level Pressure  
Sea Level Pressure 29.83 in    
Wind  
Wind Speed 2 mph ()    
Max Wind Speed 9 mph    
Max Gust Speed -    
Visibility 3.6 miles    
Events      
Averages and records for this station are not official NWS values.
T = Trace of Precipitation, MM = Missing Value Source: Averaged Metar Reports

Daily Weather History Graph

Daily Weather History Graph

Search for Another Location

Airport or City:

Trip Planner

Search our weather history database for the weather conditions in past years. The results will help you decide how hot, cold, wet, or windy it might be!

Date:

Astronomy

Oct. 02, 2011 Rise Set
Actual Time 6:06 AM IST 6:04 PM IST
Civil Twilight 5:44 AM IST 6:26 PM IST
Nautical Twilight 5:19 AM IST 6:51 PM IST
Astronomical Twilight 4:54 AM IST 7:16 PM IST
Moon 10:57 AM IST (10/2) 10:22 PM IST (10/2)
Length of Visible Light 12h 41m
Length of Day
11h 58m
Waxing Crescent, 30% of the Moon is Illuminated
Oct 2
Waxing Crescent
Oct 4
First Quarter
Oct 12
Full
Oct 20
Last Quarter
Oct 27
New

Hourly Weather History & Observations

Time (IST) Temp. Heat Index Dew Point Humidity Pressure Visibility Wind Dir Wind Speed Gust Speed Precip Events Conditions
2:30 AM 73 °F - 69 °F 84% 29.77 in 2 mi Calm Calm - -   Haze
5:30 AM 72 °F - 69 °F 88% 29.78 in 2 mi Calm Calm - -   Haze
6:10 AM 69.8 °F - 62.6 °F 78% 29.89 in 1.9 mi Calm Calm - N/A   Haze
7:10 AM 71.6 °F - 64.4 °F 78% 29.89 in 1.9 mi Calm Calm - N/A   Haze
8:30 AM 80 °F - 66 °F 54% 29.82 in 2 mi Calm Calm - -   Haze
9:40 AM 84.2 °F 83.8 °F 59.0 °F 42% 29.95 in 3.1 mi SSW 2.3 mph - N/A   Haze
10:10 AM 86.0 °F 85.4 °F 59.0 °F 40% 29.95 in - SSW 2.3 mph - N/A   Haze
11:30 AM 91 °F - 70 °F 41% 29.78 in 6 mi Calm Calm - -   Partly Cloudy
12:10 PM 87.8 °F 85.7 °F 53.6 °F 31% 29.92 in 4.3 mi Variable 2.3 mph - N/A   Mostly Cloudy
1:10 PM 87.8 °F - 51.8 °F 29% 29.86 in 4.3 mi NW 4.6 mph - N/A   Mostly Cloudy
2:10 PM 89.6 °F 87.3 °F 53.6 °F 29% 29.86 in 4.3 mi WSW 3.5 mph - N/A   Mostly Cloudy
2:30 PM 92 °F - 70 °F 40% 29.68 in 6 mi NW 3.5 mph - -   Mostly Cloudy
2:40 PM 87.8 °F 85.7 °F 53.6 °F 31% 29.83 in - North - - N/A   Mostly Cloudy
3:10 PM 87.8 °F 85.7 °F 53.6 °F 31% 29.83 in 4.3 mi East 5.8 mph - N/A   Mostly Cloudy
3:40 PM 87.8 °F 86.1 °F 55.4 °F 33% 29.80 in 4.3 mi ENE 9.2 mph - N/A   Scattered Clouds
4:10 PM 87.8 °F 86.1 °F 55.4 °F 33% 29.80 in 4.3 mi ENE 9.2 mph - N/A   Scattered Clouds
5:10 PM 86.0 °F 84.5 °F 55.4 °F 35% 29.83 in 4.3 mi ENE 4.6 mph - N/A   Scattered Clouds
5:30 PM 87 °F - 70 °F 48% 29.68 in 6 mi NW 3.5 mph - -   Mostly Cloudy
6:10 PM 84.2 °F 83.8 °F 59.0 °F 42% 29.83 in 3.7 mi Calm Calm - N/A   Scattered Clouds
7:10 PM 80.6 °F 81.5 °F 60.8 °F 51% 29.86 in 3.7 mi Calm Calm - N/A   Scattered Clouds
7:40 PM 80.6 °F 81.1 °F 59.0 °F 48% 29.89 in - Calm Calm - N/A   Haze
8:30 PM 79 °F - 70 °F 68% 29.78 in 2 mi Calm Calm - -   Haze
9:10 PM 77.0 °F - 62.6 °F 61% 29.92 in 3.1 mi Calm Calm - N/A   Haze
11:30 PM 76 °F - 70 °F 77% 29.81 in 2 mi Calm Calm - -   Haze